Find Starlink 31929

NORAD ID: 59836 Int'l Des: 2024-097 Owner: SPXS Country: US Constellation: starlink operational
LEOCIRCULAR

Live Position

Loading 3D Globe...

About Starlink 31929

Description loading...

Upcoming Passes

Passes for default location (London). Set your location on the main map for personalized predictions.

Altitude History

Loading altitude history...

Two-Line Element Set

1 59836U 24097B 26125.57831520 -.00002582 00000-0 -84268-4 0 9991
2 59836 43.0050 313.3900 0000678 252.3817 107.6961 15.27602695110615
Epoch: May 5, 2026 • Age: 14 hours

Current Status

Altitude 492.4 km
Velocity 7.62 km/s
Sub-Earth Point -34.50°S, 98.61°W
Launch Date May 23, 2024
Age 1.9 years
Type internet

Technical Details

Classification Payload
Mass 730.00 kg
Dry Mass 700.00 kg
Total Mass 730.00 kg
Length 0.30 m
Diameter 4.10 m
Span 29.00 m
Shape Box + pan
Manufacturer SPXS
Bus Type Starlink V2M
Phase Status In Orbit
Owner/State SPXS/US

Most Searched